{"data":{"norad_id":67126,"intl_designator":"2025-299AA","name":"STARLINK-36223","alt_names":[],"object_type":"PAYLOAD","status":"ACTIVE","operator":null,"country":"US","launch_date":"2025-12-15","launch_site_code":"AFETR","launch_vehicle":null,"mission":null,"orbit_class":"UNKNOWN","rcs_meters":null,"size_class":null,"mass_kg":null,"dimensions":null,"purposes":["comms"],"wikipedia_slug":null,"has_3d_model":false,"image_url":null,"decayed_at":null,"tle_current":{"epoch":"2026-09-20T23:21:48.439584Z","epoch_age_seconds":38150,"freshness":"FRESH","line1":"1 67126U 25299AA  26263.97347731  .00010625  00000+0  39498-3 0  9998","line2":"2 67126  43.0022 146.0155 0001014 277.6638  82.4099 15.27588422 42981","mean_motion":15.27588422,"eccentricity":0.0001014,"inclination_deg":43.0022,"raan_deg":146.0155,"arg_perigee_deg":277.6638,"mean_anomaly_deg":82.4099,"bstar":0.00039498,"rev_number":4298,"period_min":94.266228996072,"perigee_km":482.32815594472,"apogee_km":483.71959937071,"semimajor_km":6861.1608776577,"source":"CELESTRAK","updated_at":"2026-09-21T09:00:36.108791Z"}}}